Date String (YYYY-MM-DD hh:mm:ss) UTC,Instrument flags,Ambient pressure (hPa),Sample flow (lpm),Bypass flow (lpm),Sample temperature (°C),Ambient temperature (°C),ASC tube jacket temperature (°C),LED temperature (°C),Box temperature (°C),Sample RH (%),Span deviation,Mass concentration (μg/m³),Mass concentration (μg/m³),Mass concentration (μg/m³)
DateTimeUTC,F1_M11,P_M11,Q1_M11,Q2_M11,T1_M11,T2_M11,T3_M11,T4_M11,T5_M11,U1_M11,ZSPAN_M11,X2_M11,X0_M11,X1_M11
2022-08-08 02:00:00,,0833.1,5.01,0.00,34.0,28.7,00.0,41.3,33.0,35.0,0002.0,0006.24,0010.04,0005.34
2022-08-08 02:01:00,,0833.1,4.99,0.00,33.9,28.9,00.0,41.4,33.1,35.2,0002.2,0006.28,0010.13,0005.36
2022-08-08 02:02:00,,0833.1,4.99,0.00,34.0,29.0,00.0,41.4,33.2,35.9,0002.1,0006.33,0010.14,0005.43
2022-08-08 02:03:00,,0833.2,5.02,0.00,34.2,28.8,00.0,41.4,33.3,35.5,0002.0,0006.39,0010.29,0005.51
2022-08-08 02:04:00,,0833.2,5.00,0.00,34.5,28.1,00.0,41.4,33.2,35.3,0002.2,0006.42,0010.58,0005.55
2022-08-08 02:05:00,,0833.3,4.99,0.00,34.7,27.5,00.0,41.4,33.2,34.8,0002.0,0006.49,0010.80,0005.56
2022-08-08 02:06:00,,0833.3,5.00,0.00,34.8,27.4,00.0,41.4,33.1,34.4,0001.8,0006.53,0010.93,0005.56
2022-08-08 02:07:00,,0833.3,5.00,0.00,34.6,27.5,00.0,41.4,33.0,34.6,0002.0,0006.55,0010.95,0005.56
2022-08-08 02:08:00,,0833.4,5.01,0.00,34.5,27.6,00.0,41.5,33.0,34.6,0001.7,0006.56,0010.89,0005.58
2022-08-08 02:09:00,,0833.5,5.01,0.00,34.4,27.8,00.0,41.5,32.9,34.8,0001.8,0006.57,0011.15,0005.59
2022-08-08 02:10:00,,0833.4,4.99,0.00,34.3,28.0,00.0,41.6,33.0,35.1,0001.7,0006.57,0011.15,0005.61
2022-08-08 02:11:00,,0833.4,5.01,0.00,34.3,28.2,00.0,41.6,33.1,35.1,0001.4,0006.55,0011.24,0005.62
2022-08-08 02:12:00,,0833.4,4.98,0.00,34.4,28.4,00.0,41.6,33.2,34.9,0001.7,0006.57,0011.20,0005.62
2022-08-08 02:13:00,,0833.5,5.00,0.00,34.5,28.5,00.0,41.6,33.2,34.5,0002.1,0006.50,0011.19,0005.53
2022-08-08 02:14:00,,0833.5,5.00,0.00,34.5,28.7,00.0,41.7,33.2,34.3,0002.4,0006.43,0011.07,0005.46
2022-08-08 02:15:00,,0833.5,5.00,0.00,34.4,28.8,00.0,41.7,33.2,34.4,0002.0,0006.43,0010.87,0005.44
2022-08-08 02:16:00,,0833.6,4.99,0.00,34.3,28.9,00.0,41.7,33.2,34.7,0001.5,0006.43,0010.88,0005.45
2022-08-08 02:17:00,,0833.5,5.01,0.00,34.3,29.0,00.0,41.8,33.2,35.4,0001.7,0006.44,0010.87,0005.48
2022-08-08 02:18:00,,0833.6,5.00,0.00,34.4,29.1,00.0,41.8,33.4,34.8,0001.3,0006.45,0010.87,0005.51
2022-08-08 02:19:00,,0833.6,4.99,0.00,34.5,28.5,00.0,41.7,33.3,34.6,0001.3,0006.50,0010.97,0005.53
2022-08-08 02:20:00,,0833.6,4.99,0.00,34.4,27.9,00.0,41.7,33.1,34.4,0001.3,0006.56,0010.88,0005.56
2022-08-08 02:21:00,,0833.6,5.01,0.00,34.3,27.6,00.0,41.7,33.0,34.9,0001.5,0006.55,0010.78,0005.55
2022-08-08 02:22:00,,0833.6,4.98,0.00,34.2,27.6,00.0,41.7,33.0,35.4,0001.3,0006.55,0010.61,0005.55
2022-08-08 02:23:00,,0833.6,5.01,0.00,34.3,27.7,00.0,41.6,33.1,35.4,0000.0,0006.52,0010.59,0005.52
2022-08-08 02:24:00,,0833.6,4.99,0.00,34.4,27.9,00.0,41.6,33.2,34.8,0000.0,0006.48,0010.51,0005.50
2022-08-08 02:25:00,,0833.5,5.00,0.00,34.5,28.0,00.0,41.6,33.2,34.6,0000.0,0006.48,0010.51,0005.45
2022-08-08 02:26:00,,0833.5,5.00,0.00,34.5,28.2,00.0,41.6,33.2,34.5,0000.0,0006.46,0010.41,0005.43
2022-08-08 02:27:00,,0833.5,5.00,0.00,34.4,28.3,00.0,41.6,33.1,34.7,0000.0,0006.43,0010.32,0005.40
2022-08-08 02:28:00,,0833.6,5.01,0.00,34.4,28.5,00.0,41.7,33.1,34.4,0000.0,0006.44,0010.41,0005.40
2022-08-08 02:29:00,,0833.6,5.00,0.00,34.2,28.6,00.0,41.7,33.1,33.7,0000.0,0006.43,0010.38,0005.39
2022-08-08 02:30:00,,0833.7,4.98,0.00,34.1,28.7,00.0,41.7,33.1,33.6,0000.0,0006.37,0010.26,0005.36
2022-08-08 02:31:00,,0833.6,5.00,0.00,34.0,28.8,00.0,41.7,33.1,33.8,0000.0,0006.33,0010.24,0005.32
2022-08-08 02:32:00,,0833.5,5.00,0.00,33.9,28.9,00.0,41.7,33.1,33.9,0000.0,0006.40,0010.46,0005.31
2022-08-08 02:33:00,,0833.4,4.99,0.00,33.8,29.0,00.0,41.7,33.1,34.1,0000.0,0006.62,0010.95,0005.38
2022-08-08 02:34:00,,0833.4,5.00,0.00,33.7,29.0,00.0,41.7,33.1,32.7,0000.0,0006.69,0011.22,0005.43
2022-08-08 02:35:00,,0833.4,5.00,0.00,33.6,28.6,00.0,41.6,33.0,32.1,0000.0,0006.70,0011.29,0005.41
2022-08-08 02:36:00,,0833.3,5.00,0.00,33.5,28.1,00.0,41.6,32.9,32.4,0001.7,0006.78,0011.54,0005.42
2022-08-08 02:37:00,,0833.3,5.00,0.00,33.4,28.0,00.0,41.5,32.9,32.8,0002.8,0006.83,0011.99,0005.42
2022-08-08 02:38:00,,0833.3,5.00,0.00,33.2,28.0,00.0,41.4,32.8,33.6,0002.5,0006.97,0012.86,0005.43
2022-08-08 02:39:00,,0833.4,4.99,0.00,33.0,28.1,00.0,41.3,32.8,34.3,0003.0,0007.13,0013.35,0005.45
2022-08-08 02:40:00,,0833.4,5.01,0.00,32.9,28.2,00.0,41.3,32.8,34.1,0003.2,0007.18,0014.14,0005.43
2022-08-08 02:41:00,,0833.5,5.00,0.00,32.8,28.4,00.0,41.2,32.8,34.0,0003.4,0007.19,0014.55,0005.38
2022-08-08 02:42:00,,0833.5,4.99,0.00,32.7,28.5,00.0,41.2,32.8,34.4,0003.7,0007.20,0014.88,0005.33
2022-08-08 02:43:00,,0833.6,5.01,0.00,32.6,28.6,00.0,41.1,32.8,34.9,0003.6,0007.06,0015.02,0005.26
2022-08-08 02:44:00,,0833.5,4.99,0.00,32.6,28.7,00.0,41.1,32.9,35.7,0003.3,0006.97,0015.31,0005.17
2022-08-08 02:45:00,,0833.5,5.00,0.00,32.8,28.8,00.0,41.0,33.0,35.6,0003.1,0007.06,0015.36,0005.13
2022-08-08 02:46:00,,0833.5,5.01,0.00,33.1,28.9,00.0,41.0,33.2,35.2,0003.0,0007.25,0016.29,0005.17
2022-08-08 02:47:00,,0833.5,4.99,0.00,33.4,29.0,00.0,40.9,33.2,34.2,0003.4,0007.35,0017.23,0005.21
2022-08-08 02:48:00,,0833.5,5.01,0.00,33.5,28.9,00.0,40.9,33.2,33.9,0003.5,0007.42,0017.21,0005.22
2022-08-08 02:49:00,,0833.5,5.00,0.00,33.6,28.3,00.0,40.9,33.0,33.9,0003.4,0007.29,0016.50,0005.16
2022-08-08 02:50:00,,0833.5,5.00,0.00,33.5,27.9,00.0,40.9,32.9,33.9,0003.6,0007.13,0016.22,0005.10
2022-08-08 02:51:00,,0833.6,4.99,0.00,33.4,27.8,00.0,41.0,32.7,33.7,0003.3,0007.07,0015.56,0005.05
2022-08-08 02:52:00,,0833.5,5.00,0.00,33.2,27.9,00.0,41.0,32.7,34.1,0003.3,0007.13,0015.49,0005.08
2022-08-08 02:53:00,,0833.6,5.01,0.00,33.1,28.0,00.0,41.0,32.7,34.3,0003.1,0007.13,0015.28,0005.09
2022-08-08 02:54:00,,0833.6,5.00,0.00,33.0,28.1,00.0,41.0,32.7,34.7,0003.0,0007.11,0014.78,0005.07
2022-08-08 02:55:00,,0833.6,5.00,0.00,32.9,28.3,00.0,40.9,32.7,34.9,0003.4,0006.92,0014.13,0004.98
2022-08-08 02:56:00,,0833.6,5.00,0.00,32.8,28.4,00.0,40.9,32.7,35.3,0003.7,0006.65,0013.65,0004.88
2022-08-08 02:57:00,,0833.6,5.02,0.00,33.0,28.5,00.0,40.9,32.9,35.2,0004.1,0006.37,0012.50,0004.78
2022-08-08 02:58:00,,0833.7,4.99,0.00,33.2,28.6,00.0,40.9,33.0,34.9,0004.5,0006.16,0011.46,0004.67
2022-08-08 02:59:00,,0833.7,5.00,0.00,33.3,28.7,00.0,40.9,33.1,34.6,0004.6,0006.04,0011.30,0004.59
